Stations météo

Publicité
Kinlochewe, Grande-Bretagne (99092): Température de l'air & dewpoint: 15.10.2019 06:00:00 - 21.10.2019 06:00:00 (BST)Kinlochewe, Grande-Bretagne (99092): Température de l'air -20cm: 15.10.2019 06:00:00 - 21.10.2019 06:00:00 (BST)Kinlochewe, Grande-Bretagne (99092): Quantités de précipitations: 15.10.2019 06:00:00 - 21.10.2019 06:00:00 (BST)
Date & Time tt [°C] td [°C] tt -20cm [°C] rr [mm]
21.10.2019 06:00:00 - - - -
21.10.2019 05:00:00 3,5 2,0 - 0,0
21.10.2019 04:00:00 4,1 2,5 - 0,0
21.10.2019 03:00:00 4,2 2,6 - 0,0
21.10.2019 02:00:00 4,6 2,3 - 0,0
21.10.2019 01:00:00 4,9 2,7 - 0,0
21.10.2019 00:00:00 4,0 3,2 - 0,0
20.10.2019 23:00:00 4,7 3,3 - 0,0
20.10.2019 22:00:00 4,6 3,4 - 0,0
20.10.2019 21:00:00 4,7 3,1 - 0,0
20.10.2019 20:00:00 4,9 2,6 - 0,0
20.10.2019 19:00:00 5,7 2,3 - 0,0
20.10.2019 18:00:00 7,3 2,8 - 0,0
20.10.2019 17:00:00 8,1 3,4 - 0,0
20.10.2019 16:00:00 10,4 4,2 - 0,0
20.10.2019 15:00:00 9,2 3,1 - 0,0
20.10.2019 14:00:00 9,6 3,3 - 0,0
20.10.2019 13:00:00 9,4 3,6 - 0,0
20.10.2019 12:00:00 9,1 2,8 - 0,0
20.10.2019 11:00:00 8,1 3,7 - 0,0
20.10.2019 10:00:00 7,2 4,0 9,7 0,0
20.10.2019 09:00:00 3,4 2,3 - 0,0
20.10.2019 08:00:00 3,9 1,7 - 0,0
20.10.2019 07:00:00 3,7 1,7 - 0,0
20.10.2019 06:00:00 4,5 2,0 - 0,0
20.10.2019 05:00:00 7,5 2,8 - 0,0
20.10.2019 04:00:00 7,2 2,5 - 0,0
20.10.2019 03:00:00 7,6 1,1 - 0,0
20.10.2019 02:00:00 7,0 2,7 - 0,0
20.10.2019 01:00:00 7,6 3,5 - 0,2
20.10.2019 00:00:00 8,3 3,7 - 0,4
19.10.2019 23:00:00 8,7 4,7 - 0,0
19.10.2019 22:00:00 9,1 5,0 - 0,0
19.10.2019 21:00:00 9,1 5,3 - 0,2
19.10.2019 20:00:00 9,7 5,8 - 0,0
19.10.2019 19:00:00 9,2 7,4 - 0,0
19.10.2019 18:00:00 9,5 6,9 - 0,0
19.10.2019 17:00:00 9,8 7,4 - 0,0
19.10.2019 16:00:00 10,1 7,4 - 0,8
19.10.2019 15:00:00 10,2 8,2 - 0,8
19.10.2019 14:00:00 12,6 7,7 - 0,4
19.10.2019 13:00:00 11,8 7,0 - 0,0
19.10.2019 12:00:00 11,4 6,5 - 0,0
19.10.2019 11:00:00 9,8 5,7 - 0,0
19.10.2019 10:00:00 9,0 5,3 9,9 0,0
19.10.2019 09:00:00 8,1 5,1 - 0,0
19.10.2019 08:00:00 9,0 4,5 - 0,0
19.10.2019 07:00:00 9,3 4,0 - 0,0
19.10.2019 06:00:00 9,8 4,3 - 0,0
19.10.2019 05:00:00 10,3 5,0 - 0,0
19.10.2019 04:00:00 10,3 6,0 - 0,0
19.10.2019 03:00:00 10,7 6,3 - 0,0
19.10.2019 02:00:00 10,9 6,7 - 0,0
19.10.2019 01:00:00 10,6 6,7 - 0,0
19.10.2019 00:00:00 10,8 7,4 - 0,2
18.10.2019 23:00:00 10,9 7,4 - 0,2
18.10.2019 22:00:00 10,8 6,9 - 0,0
18.10.2019 21:00:00 10,8 7,5 - 0,4
18.10.2019 20:00:00 10,7 7,2 - 0,0
18.10.2019 19:00:00 11,1 7,1 - 0,0
18.10.2019 18:00:00 12,0 5,6 - 0,0
18.10.2019 17:00:00 12,6 6,4 - 0,0
18.10.2019 16:00:00 12,5 6,1 - 0,0
18.10.2019 15:00:00 12,8 5,6 - 0,0
18.10.2019 14:00:00 14,0 7,0 - 0,0
18.10.2019 13:00:00 12,8 7,1 - 0,0
18.10.2019 12:00:00 11,4 7,0 - 0,0
18.10.2019 11:00:00 8,5 6,7 - 0,0
18.10.2019 10:00:00 7,0 6,5 9,7 0,0
18.10.2019 09:00:00 5,8 4,9 - 0,0
18.10.2019 08:00:00 7,6 5,9 - 0,0
18.10.2019 07:00:00 7,9 6,0 - 0,0
18.10.2019 06:00:00 8,2 6,0 - 0,0
18.10.2019 05:00:00 7,8 5,6 - 0,0
18.10.2019 04:00:00 7,5 5,0 - 0,0
18.10.2019 03:00:00 7,6 4,9 - 0,0
18.10.2019 02:00:00 9,5 5,9 - 0,0
18.10.2019 01:00:00 8,4 5,7 - 0,0
18.10.2019 00:00:00 9,4 5,9 - 0,0
17.10.2019 23:00:00 10,1 6,4 - 0,0
17.10.2019 22:00:00 10,1 6,4 - 0,0
17.10.2019 21:00:00 8,8 5,8 - 0,0
17.10.2019 20:00:00 9,5 5,8 - 0,0
17.10.2019 19:00:00 9,5 5,8 - 0,0
17.10.2019 18:00:00 10,2 5,9 - 0,0
17.10.2019 17:00:00 10,4 6,2 - 0,0
17.10.2019 16:00:00 11,3 6,1 - 0,0
17.10.2019 15:00:00 11,9 6,2 - 0,0
17.10.2019 14:00:00 12,4 5,9 - 0,0
17.10.2019 13:00:00 12,2 6,1 - 0,0
17.10.2019 12:00:00 11,5 5,9 - 0,0
17.10.2019 11:00:00 8,5 5,4 - 0,0
17.10.2019 10:00:00 5,6 4,5 10,0 0,0
17.10.2019 09:00:00 2,5 2,1 - 0,0
17.10.2019 08:00:00 2,1 1,5 - 0,0
17.10.2019 07:00:00 2,8 1,9 - 0,0
17.10.2019 06:00:00 2,2 1,6 - 0,0
17.10.2019 05:00:00 2,0 1,4 - 0,0
17.10.2019 04:00:00 2,6 2,1 - 0,0
17.10.2019 03:00:00 3,5 3,0 - 0,0
17.10.2019 02:00:00 3,6 2,7 - 0,0
17.10.2019 01:00:00 4,7 3,2 - 0,0
17.10.2019 00:00:00 6,6 4,7 - 0,0
16.10.2019 23:00:00 6,8 4,9 - 0,0
16.10.2019 22:00:00 8,6 5,4 - 0,0
16.10.2019 21:00:00 8,2 6,4 - 0,0
16.10.2019 20:00:00 7,8 6,7 - 0,0
16.10.2019 19:00:00 6,4 5,6 - 0,0
16.10.2019 18:00:00 9,0 6,5 - 0,0
16.10.2019 17:00:00 11,5 6,7 - 0,0
16.10.2019 16:00:00 13,1 5,9 - 0,0
16.10.2019 15:00:00 13,0 6,9 - 0,0
16.10.2019 14:00:00 12,7 8,8 - 0,0
16.10.2019 13:00:00 12,6 8,0 - 0,0
16.10.2019 12:00:00 11,4 9,0 - 0,0
16.10.2019 11:00:00 10,4 8,8 - 1,0
16.10.2019 10:00:00 10,7 8,9 10,2 0,6
16.10.2019 09:00:00 12,3 7,7 - 0,0
16.10.2019 08:00:00 11,9 7,8 - 0,0
16.10.2019 07:00:00 11,7 7,4 - 0,0
16.10.2019 06:00:00 11,2 6,8 - 0,0
16.10.2019 05:00:00 11,2 6,5 - 0,0
16.10.2019 04:00:00 10,4 6,4 - 0,0
16.10.2019 03:00:00 10,5 6,3 - 0,0
16.10.2019 02:00:00 10,6 6,4 - 0,0
16.10.2019 01:00:00 10,5 6,6 - 0,0
16.10.2019 00:00:00 10,9 6,5 - 0,0
15.10.2019 23:00:00 10,6 6,7 - 0,0
15.10.2019 22:00:00 10,9 7,0 - 0,0
15.10.2019 21:00:00 10,4 7,3 - 0,0
15.10.2019 20:00:00 10,4 7,7 - 0,0
15.10.2019 19:00:00 10,8 7,7 - 0,0
15.10.2019 18:00:00 12,0 6,6 - 0,0
15.10.2019 17:00:00 13,1 6,8 - 0,0
15.10.2019 16:00:00 14,2 6,9 - 0,0
15.10.2019 15:00:00 14,3 6,6 - 0,0
15.10.2019 14:00:00 15,2 7,8 - 0,0
15.10.2019 13:00:00 13,5 7,3 - 0,0
15.10.2019 12:00:00 13,4 7,5 - 0,0
15.10.2019 11:00:00 11,1 6,8 - 0,0
15.10.2019 10:00:00 9,3 7,1 10,2 0,0
15.10.2019 09:00:00 7,4 6,1 - 0,0
15.10.2019 08:00:00 7,7 5,7 - 0,0
15.10.2019 07:00:00 7,5 5,9 - 0,0
15.10.2019 06:00:00 7,0 6,1 - 0,0

tt = Température de l'air
td = dewpoint
tt -20cm = Température de l'air -20cm
rr = Quantités de précipitations

stations d'obs. à proximité